Casablanca, Morocco

11:38 AM WET on February 28, 2017 (GMT +0000)
Anfa

Weather History for GMMC - November, 2011

Change the Weather History Date:

Friday, November 18, 2011

  Actual Average Record
Temperature  
Mean Temperature 65 °F -  
Max Temperature 73 °F 65 °F - ()
Min Temperature 57 °F 47 °F - ()
Growing Degree Days 15 (Base 50)    
Moisture  
Dew Point 57 °F    
Average Humidity 76    
Maximum Humidity 94    
Minimum Humidity 46    
Precipitation  
Precipitation 0.00 in 0.10 in - ()
Sea Level Pressure  
Sea Level Pressure 29.94 in    
Wind  
Wind Speed - ()    
Max Wind Speed -    
Max Gust Speed -    
Visibility 5.6 miles    
Events      
T = Trace of Precipitation, MM = Missing Value Source: Averaged Metar Reports

Daily Weather History Graph

Daily Weather History Graph

Search for Another Location

Airport or City:

Trip Planner

Search our weather history database for the weather conditions in past years. The results will help you decide how hot, cold, wet, or windy it might be!

Date:

Astronomy

Nov. 18, 2011 Rise Set
Actual Time 7:04 AM WET 5:26 PM WET
Civil Twilight 6:38 AM WET 5:53 PM WET
Nautical Twilight 6:07 AM WET 6:23 PM WET
Astronomical Twilight 5:38 AM WET 6:52 PM WET
Moon No Moon Rise 12:45 PM WET (11/18)
Length of Visible Light 11h 14m
Length of Day
10h 21m
Waning Gibbous, 51% of the Moon is Illuminated
Nov 18
Waning Gibbous
Nov 18
Last Quarter
Nov 25
New
Dec 2
First Quarter
Dec 10
Full

Hourly Weather History & Observations

Time (WET) Temp. Dew Point Humidity Pressure Visibility Wind Dir Wind Speed Gust Speed Precip Events Conditions
12:00 AM 60 °F 56 °F 84% 30.03 in 5 mi Calm Calm - -   Mostly Cloudy
12:00 AM 60.8 °F 57.2 °F 88% 30.01 in - North - - N/A   Scattered Clouds
1:00 AM 59.0 °F 57.2 °F 94% 29.98 in - North - - N/A   Scattered Clouds
2:00 AM 59.0 °F 57.2 °F 94% 29.98 in - North - - N/A   Scattered Clouds
3:00 AM 58 °F 57 °F 94% 30.01 in 5 mi Calm Calm - -   Partly Cloudy
4:00 AM 59.0 °F 55.4 °F 88% 29.98 in - North - - N/A   Scattered Clouds
5:00 AM 60.8 °F 53.6 °F 77% 29.98 in - North - - N/A   Scattered Clouds
6:00 AM 60 °F 54 °F 74% 30.01 in 5 mi Calm Calm - -   Scattered Clouds
7:00 AM 59.0 °F 53.6 °F 82% 29.98 in - North - - N/A   Mostly Cloudy
8:00 AM 57.2 °F 55.4 °F 94% 29.98 in - North - - N/A   Unknown
9:00 AM 64.4 °F 55.4 °F 73% 29.98 in - North - - N/A   Clear
10:00 AM 69.8 °F 55.4 °F 60% 29.98 in - North - - N/A   Clear
11:00 AM 71.6 °F 55.4 °F 57% 29.95 in - North - - N/A   Clear
12:00 PM 72 °F 55 °F 46% 29.98 in 6 mi Calm Calm - -   Scattered Clouds
12:00 PM 71.6 °F 55.4 °F 57% 29.95 in - North - - N/A   Clear
1:00 PM 71.6 °F 57.2 °F 60% 29.92 in - North - - N/A   Partly Cloudy
2:00 PM 71.6 °F 57.2 °F 60% 29.89 in - North - - N/A   Partly Cloudy
3:00 PM 69 °F 56 °F 55% 29.92 in 6 mi Calm Calm - -   Scattered Clouds
3:00 PM 69.8 °F 57.2 °F 64% 29.89 in - North - - N/A   Partly Cloudy
4:00 PM 68.0 °F 59.0 °F 73% 29.89 in - North - - N/A   Partly Cloudy
5:00 PM 66.2 °F 59.0 °F 78% 29.89 in - North - - N/A   Mostly Cloudy
6:00 PM 65 °F 58 °F 71% 29.93 in 6 mi Calm Calm - -   Scattered Clouds
6:00 PM 66.2 °F 57.2 °F 73% 29.89 in - North - - N/A   Mostly Cloudy
7:00 PM 64.4 °F 57.2 °F 77% 29.89 in - North - - N/A   Mostly Cloudy
8:00 PM 64.4 °F 59.0 °F 83% 29.89 in - North - - N/A   Clear
9:00 PM 63 °F 58 °F 80% 29.94 in 6 mi Calm Calm - -   Clear
9:00 PM 62.6 °F 59.0 °F 88% 29.89 in - North - - N/A   Clear
10:00 PM 62.6 °F 59.0 °F 88% 29.89 in - North - - N/A   Clear
11:00 PM 62.6 °F 59.0 °F 88% 29.89 in - North - - N/A   Clear